Date String (YYYY-MM-DD hh:mm:ss) UTC,Instrument flags,Ambient pressure (hPa),Sample flow (lpm),Bypass flow (lpm),Sample temperature (°C),Ambient temperature (°C),ASC tube jacket temperature (°C),LED temperature (°C),Box temperature (°C),Sample RH (%),Span deviation,Mass concentration (μg/m³),Mass concentration (μg/m³),Mass concentration (μg/m³)
DateTimeUTC,F1_M11,P_M11,Q1_M11,Q2_M11,T1_M11,T2_M11,T3_M11,T4_M11,T5_M11,U1_M11,ZSPAN_M11,X0_M11,X2_M11,X1_M11
2022-06-12 12:00:00,,0823.0,5.01,0.00,29.8,29.0,00.0,38.7,31.8,19.0,0000.0,0014.21,0005.39,0003.99
2022-06-12 12:01:00,,0822.9,5.00,0.00,29.9,29.0,00.0,38.7,31.8,19.0,0000.0,0014.65,0005.44,0003.97
2022-06-12 12:02:00,,0823.0,4.99,0.00,29.9,29.0,00.0,38.7,31.8,18.9,0000.0,0015.28,0005.43,0003.97
2022-06-12 12:03:00,,0823.0,4.99,0.00,29.9,28.5,00.0,38.6,31.7,18.8,0000.0,0016.58,0005.45,0003.98
2022-06-12 12:04:00,,0823.0,5.01,0.00,29.8,27.8,00.0,38.6,31.5,18.7,0000.0,0016.33,0005.45,0003.96
2022-06-12 12:05:00,,0823.0,4.99,0.00,29.7,27.6,00.0,38.5,31.4,19.0,0000.0,0016.19,0005.38,0003.94
2022-06-12 12:06:00,,0822.9,5.00,0.00,29.6,27.6,00.0,38.5,31.3,19.4,0000.0,0016.52,0005.39,0003.91
2022-06-12 12:07:00,,0823.0,5.01,0.00,29.6,27.6,00.0,38.5,31.3,19.7,0000.0,0018.00,0005.45,0003.90
2022-06-12 12:08:00,,0823.0,4.99,0.00,29.5,27.7,00.0,38.5,31.3,19.7,0000.0,0018.37,0005.48,0003.90
2022-06-12 12:09:00,,0823.1,5.00,0.00,29.5,27.8,00.0,38.5,31.3,19.8,0000.0,0018.39,0005.47,0003.89
2022-06-12 12:10:00,,0823.2,5.00,0.00,29.5,27.9,00.0,38.5,31.3,19.9,0000.0,0018.35,0005.53,0003.87
2022-06-12 12:11:00,,0823.2,5.01,0.00,29.5,28.0,00.0,38.5,31.4,20.0,0000.0,0017.99,0005.55,0003.86
2022-06-12 12:12:00,,0823.1,4.99,0.00,29.5,28.1,00.0,38.5,31.4,19.9,0000.0,0017.57,0005.53,0003.84
2022-06-12 12:13:00,,0823.1,5.01,0.00,29.5,28.2,00.0,38.5,31.4,19.8,0000.0,0016.39,0005.54,0003.82
2022-06-12 12:14:00,,0823.1,4.99,0.00,29.5,28.3,00.0,38.5,31.4,19.9,0000.0,0015.61,0005.56,0003.79
2022-06-12 12:15:00,,0823.1,4.99,0.00,29.5,28.4,00.0,38.5,31.4,19.8,0000.0,0015.62,0005.62,0003.77
2022-06-12 12:16:00,,0823.1,5.00,0.00,29.5,28.4,00.0,38.5,31.4,19.6,0000.0,0016.58,0005.70,0003.76
2022-06-12 12:17:00,,0823.1,5.01,0.00,29.6,28.5,00.0,38.5,31.5,19.8,0000.0,0016.77,0005.68,0003.75
2022-06-12 12:18:00,,0823.2,5.00,0.00,29.6,28.5,00.0,38.5,31.5,19.5,0000.0,0015.73,0005.67,0003.75
2022-06-12 12:19:00,,0823.2,4.99,0.00,29.6,28.6,00.0,38.5,31.5,19.4,0000.0,0015.62,0005.68,0003.74
2022-06-12 12:20:00,,0823.2,4.99,0.00,29.6,28.6,00.0,38.5,31.5,19.5,0000.0,0016.09,0005.67,0003.73
2022-06-12 12:21:00,,0823.2,5.00,0.00,29.6,28.6,00.0,38.5,31.5,19.3,0000.0,0017.10,0005.63,0003.71
2022-06-12 12:22:00,,0823.2,5.00,0.00,29.6,28.7,00.0,38.5,31.5,19.3,0000.0,0018.18,0005.65,0003.69
2022-06-12 12:23:00,,0823.2,5.01,0.00,29.6,28.7,00.0,38.5,31.6,19.5,0000.0,0019.57,0005.67,0003.70
2022-06-12 12:24:00,,0823.2,5.00,0.00,29.7,28.7,00.0,38.5,31.6,19.3,0000.0,0020.85,0005.70,0003.70
2022-06-12 12:25:00,,0823.2,5.01,0.00,29.7,28.8,00.0,38.5,31.6,19.2,0000.0,0020.67,0005.73,0003.71
2022-06-12 12:26:00,,0823.2,5.00,0.00,29.7,28.8,00.0,38.5,31.6,19.1,0000.0,0020.32,0005.65,0003.70
2022-06-12 12:27:00,,0823.2,5.00,0.00,29.7,28.8,00.0,38.6,31.6,19.1,0000.0,0019.19,0005.60,0003.70
2022-06-12 12:28:00,,0823.2,5.00,0.00,29.7,28.8,00.0,38.6,31.7,19.1,0000.0,0018.35,0005.55,0003.70
2022-06-12 12:29:00,,0823.2,4.99,0.00,29.7,28.9,00.0,38.6,31.7,19.1,0000.0,0018.03,0005.48,0003.69
2022-06-12 12:30:00,,0823.2,5.02,0.00,29.8,28.9,00.0,38.6,31.7,18.8,0000.0,0017.83,0005.44,0003.68
2022-06-12 12:31:00,,0823.3,5.01,0.00,29.8,28.9,00.0,38.6,31.7,19.1,0000.0,0017.42,0005.43,0003.67
2022-06-12 12:32:00,,0823.2,4.99,0.00,29.8,28.9,00.0,38.6,31.7,18.7,0000.0,0016.38,0005.37,0003.67
2022-06-12 12:33:00,,0823.2,4.99,0.00,29.8,28.9,00.0,38.6,31.8,19.0,0000.0,0015.57,0005.30,0003.66
2022-06-12 12:34:00,,0823.3,5.01,0.00,29.8,28.8,00.0,38.6,31.7,19.6,0000.0,0015.27,0005.29,0003.65
2022-06-12 12:35:00,,0823.2,4.99,0.00,29.8,28.1,00.0,38.6,31.6,19.7,0000.0,0014.82,0005.26,0003.63
2022-06-12 12:36:00,,0823.3,5.01,0.00,29.7,27.8,00.0,38.5,31.5,19.9,0000.0,0014.89,0005.24,0003.62
2022-06-12 12:37:00,,0823.3,4.99,0.00,29.7,27.7,00.0,38.5,31.4,20.2,0000.0,0014.99,0005.29,0003.61
2022-06-12 12:38:00,,0823.3,5.01,0.00,29.6,27.8,00.0,38.5,31.3,19.5,0000.0,0015.73,0005.32,0003.60
2022-06-12 12:39:00,,0823.4,5.00,0.00,29.6,27.8,00.0,38.5,31.4,19.4,0000.0,0016.04,0005.32,0003.60
2022-06-12 12:40:00,,0823.4,4.98,0.00,29.6,27.9,00.0,38.5,31.4,19.3,0000.0,0016.26,0005.32,0003.60
2022-06-12 12:41:00,,0823.4,4.99,0.00,29.6,28.0,00.0,38.5,31.4,19.3,0000.0,0016.30,0005.33,0003.61
2022-06-12 12:42:00,,0823.4,5.01,0.00,29.6,28.1,00.0,38.5,31.4,19.4,0000.0,0016.74,0005.35,0003.61
2022-06-12 12:43:00,,0823.4,4.99,0.00,29.6,28.2,00.0,38.5,31.4,19.4,0000.0,0016.93,0005.42,0003.62
2022-06-12 12:44:00,,0823.4,4.99,0.00,29.6,28.3,00.0,38.5,31.4,19.5,0000.0,0017.06,0005.52,0003.63
2022-06-12 12:45:00,,0823.4,5.01,0.00,29.6,28.4,00.0,38.5,31.5,19.5,0000.0,0016.51,0005.57,0003.63
2022-06-12 12:46:00,,0823.4,5.00,0.00,29.6,28.5,00.0,38.5,31.5,19.6,0000.0,0016.01,0005.58,0003.63
2022-06-12 12:47:00,,0823.3,4.99,0.00,29.6,28.5,00.0,38.5,31.5,19.5,0000.0,0015.43,0005.56,0003.64
2022-06-12 12:48:00,,0823.3,5.00,0.00,29.6,28.6,00.0,38.5,31.5,19.4,0000.0,0016.04,0005.55,0003.64
2022-06-12 12:49:00,,0823.4,4.99,0.00,29.6,28.6,00.0,38.5,31.5,19.7,0000.0,0015.30,0005.53,0003.64
2022-06-12 12:50:00,,0823.3,4.99,0.00,29.7,28.7,00.0,38.5,31.6,19.7,0000.0,0015.29,0005.53,0003.65
2022-06-12 12:51:00,,0823.3,4.99,0.00,29.7,28.7,00.0,38.5,31.6,19.6,0000.0,0015.82,0005.58,0003.64
2022-06-12 12:52:00,,0823.4,5.00,0.00,29.7,28.8,00.0,38.5,31.6,19.5,0000.0,0015.72,0005.57,0003.63
2022-06-12 12:53:00,,0823.3,5.00,0.00,29.7,28.8,00.0,38.6,31.6,19.6,0000.0,0015.86,0005.51,0003.63
2022-06-12 12:54:00,,0823.3,5.01,0.00,29.7,28.8,00.0,38.6,31.7,19.8,0000.0,0015.56,0005.46,0003.64
2022-06-12 12:55:00,,0823.4,5.00,0.00,29.7,28.9,00.0,38.6,31.7,20.8,0000.0,0015.14,0005.35,0003.62
2022-06-12 12:56:00,,0823.3,4.99,0.00,29.8,28.9,00.0,38.6,31.7,21.1,0000.0,0015.54,0005.24,0003.59
2022-06-12 12:57:00,,0823.3,5.01,0.00,29.8,28.9,00.0,38.6,31.7,21.2,0000.0,0015.20,0005.14,0003.55
2022-06-12 12:58:00,,0823.3,5.01,0.00,29.8,28.5,00.0,38.6,31.6,21.5,0000.0,0015.91,0005.07,0003.51
2022-06-12 12:59:00,,0823.3,5.00,0.00,29.7,27.7,00.0,38.5,31.4,21.6,0000.0,0015.69,0005.01,0003.50
